(°C)
-1°
(°C)
-5°
-5°
-5°
-6°
-6°
-6°
-5°
ЗСЗ
ЗСЗ
ЗСЗ
ЗСЗ
ЗСЗ
ЗСЗ
ЗСЗ
(km/h)
18-33
17-31
17-30
17-33
16-30
16-31
16-32
(mm)
0
0
0
0
0
0
0
(%)
0
0
0
0
0
0
0

Издигане на слънцето

/ -49.7°
sun-icon
UV 1
07:16
16:02
Намаляващ полумесец (307°)
01:54
14:04

METAR за Ivanka pri Dunaji (LZIB)

Час Условия Температура/
Точка на оросяване
Вятър Видимост Времето Облаци Налягане Промяна Сурови
VFR 2°C / -3°C 300º 16kt >10km - Few Clouds 4900ft 1009 - LZIB 300100Z 30016KT 9999 FEW049 02/M03 Q1009
VFR 2°C / -3°C 290º 17kt Gust 30kt >10km - Few Clouds 2500ft 1008 - LZIB 300030Z 29017G30KT 9999 FEW025 02/M03 Q1008
VFR 2°C / -3°C 300º variable 270º to 330º 13kt Gust 25kt >10km - Broken Clouds 3300ft 1008 - LZIB 300000Z 30013G25KT 270V330 9999 BKN033 02/M03 Q1008
VFR 2°C / -3°C 300º 16kt >10km - Scattered Clouds 3700ft 1008 - LZIB 292330Z 30016KT 9999 SCT037 02/M03 Q1008
VFR 2°C / -3°C 300º variable 260º to 330º 11kt >10km - Few Clouds 3400ft 1008 - LZIB 292300Z 30011KT 260V330 9999 FEW034 02/M03 Q1008
VFR 2°C / -3°C 300º 12kt >10km - Few Clouds 3400ft
Scattered Clouds 4500ft
1008 - LZIB 292230Z 30012KT 9999 FEW034 SCT045 02/M03 Q1008
VFR 2°C / -2°C 300º 10kt >10km - Few Clouds 2200ft
Scattered Clouds 4600ft
1007 - LZIB 292200Z 30010KT 9999 FEW022 SCT046 02/M02 Q1007
VFR 2°C / -2°C 290º 12kt >10km - Few Clouds 2900ft
Scattered Clouds 4300ft
1007 - LZIB 292130Z 29012KT 9999 FEW029 SCT043 02/M02 Q1007
VFR 2°C / -2°C 300º 11kt >10km - Scattered Clouds 3000ft 1007 - LZIB 292100Z 30011KT 9999 SCT030 02/M02 Q1007
VFR 2°C / -2°C 290º 11kt >10km - Few Clouds 3800ft
Broken Clouds 4600ft
1007 - LZIB 292030Z 29011KT 9999 FEW038 BKN046 02/M02 Q1007
VFR 1°C / -2°C 290º 11kt >10km - Few Clouds 3800ft 1006 - LZIB 292000Z 29011KT 9999 FEW038 01/M02 Q1006
VFR 1°C / -2°C 290º 10kt >10km - Few Clouds 3800ft 1006 - LZIB 291930Z 29010KT 9999 FEW038 01/M02 Q1006
VFR 2°C / -2°C 300º 12kt >10km - Few Clouds 3400ft 1005 No Significant change LZIB 291900Z 30012KT 9999 FEW034 02/M02 Q1005 NOSIG
VFR 2°C / -2°C 300º 11kt >10km - Clouds and Visibility OK 1005 No Significant change LZIB 291830Z 30011KT CAVOK 02/M02 Q1005 NOSIG
VFR 2°C / -2°C 310º 12kt >10km - Clouds and Visibility OK 1005 No Significant change LZIB 291800Z 31012KT CAVOK 02/M02 Q1005 NOSIG
VFR 2°C / -2°C 310º 12kt >10km - Clouds and Visibility OK 1005 No Significant change LZIB 291730Z 31012KT CAVOK 02/M02 Q1005 NOSIG
VFR 2°C / -2°C 310º 12kt >10km - Clouds and Visibility OK 1004 No Significant change LZIB 291700Z 31012KT CAVOK 02/M02 Q1004 NOSIG
VFR 2°C / -3°C 300º 12kt >10km - Clouds and Visibility OK 1004 No Significant change LZIB 291630Z 30012KT CAVOK 02/M03 Q1004 NOSIG
VFR 3°C / -3°C 310º 11kt >10km - Few Clouds 2400ft 1004 No Significant change LZIB 291600Z 31011KT 9999 FEW024 03/M03 Q1004 NOSIG
VFR 2°C / -3°C 310º 10kt >10km - Few Clouds 2400ft 1003 No Significant change LZIB 291530Z 31010KT 9999 FEW024 02/M03 Q1003 NOSIG
VFR 3°C / -2°C 310º 10kt >10km - Few Clouds 2400ft 1003 No Significant change LZIB 291500Z 31010KT 9999 FEW024 03/M02 Q1003 NOSIG
VFR 3°C / -2°C 310º 11kt >10km - Scattered Clouds 2400ft 1003 No Significant change LZIB 291430Z 31011KT 9999 SCT024 03/M02 Q1003 NOSIG
MVFR 3°C / -2°C 310º variable 280º to 340º 11kt Gust 22kt >10km - Broken Clouds 2500ft 1002 No Significant change LZIB 291400Z 31011G22KT 280V340 9999 BKN025 03/M02 Q1002 NOSIG
MVFR 3°C / -2°C 310º 11kt >10km - Broken Clouds 2500ft 1002 No Significant change LZIB 291330Z 31011KT 9999 BKN025 03/M02 Q1002 NOSIG

VFR

2°C / -3°C

[Още]
Вятър 300º 16kt
Видимост >10km
Времето -
Облаци Few Clouds 4900ft
Налягане 1009
Промяна -
Сурови LZIB 300100Z 30016KT 9999 FEW049 02/M03 Q1009

VFR

2°C / -3°C

[Още]
Вятър 290º 17kt Gust 30kt
Видимост >10km
Времето -
Облаци Few Clouds 2500ft
Налягане 1008
Промяна -
Сурови LZIB 300030Z 29017G30KT 9999 FEW025 02/M03 Q1008

VFR

2°C / -3°C

[Още]
Вятър 300º variable 270º to 330º 13kt Gust 25kt
Видимост >10km
Времето -
Облаци Broken Clouds 3300ft
Налягане 1008
Промяна -
Сурови LZIB 300000Z 30013G25KT 270V330 9999 BKN033 02/M03 Q1008

VFR

2°C / -3°C

[Още]
Вятър 300º 16kt
Видимост >10km
Времето -
Облаци Scattered Clouds 3700ft
Налягане 1008
Промяна -
Сурови LZIB 292330Z 30016KT 9999 SCT037 02/M03 Q1008

VFR

2°C / -3°C

[Още]
Вятър 300º variable 260º to 330º 11kt
Видимост >10km
Времето -
Облаци Few Clouds 3400ft
Налягане 1008
Промяна -
Сурови LZIB 292300Z 30011KT 260V330 9999 FEW034 02/M03 Q1008

VFR

2°C / -3°C

[Още]
Вятър 300º 12kt
Видимост >10km
Времето -
Облаци Few Clouds 3400ft
Scattered Clouds 4500ft
Налягане 1008
Промяна -
Сурови LZIB 292230Z 30012KT 9999 FEW034 SCT045 02/M03 Q1008

VFR

2°C / -2°C

[Още]
Вятър 300º 10kt
Видимост >10km
Времето -
Облаци Few Clouds 2200ft
Scattered Clouds 4600ft
Налягане 1007
Промяна -
Сурови LZIB 292200Z 30010KT 9999 FEW022 SCT046 02/M02 Q1007

VFR

2°C / -2°C

[Още]
Вятър 290º 12kt
Видимост >10km
Времето -
Облаци Few Clouds 2900ft
Scattered Clouds 4300ft
Налягане 1007
Промяна -
Сурови LZIB 292130Z 29012KT 9999 FEW029 SCT043 02/M02 Q1007

VFR

2°C / -2°C

[Още]
Вятър 300º 11kt
Видимост >10km
Времето -
Облаци Scattered Clouds 3000ft
Налягане 1007
Промяна -
Сурови LZIB 292100Z 30011KT 9999 SCT030 02/M02 Q1007

VFR

2°C / -2°C

[Още]
Вятър 290º 11kt
Видимост >10km
Времето -
Облаци Few Clouds 3800ft
Broken Clouds 4600ft
Налягане 1007
Промяна -
Сурови LZIB 292030Z 29011KT 9999 FEW038 BKN046 02/M02 Q1007

VFR

1°C / -2°C

[Още]
Вятър 290º 11kt
Видимост >10km
Времето -
Облаци Few Clouds 3800ft
Налягане 1006
Промяна -
Сурови LZIB 292000Z 29011KT 9999 FEW038 01/M02 Q1006

VFR

1°C / -2°C

[Още]
Вятър 290º 10kt
Видимост >10km
Времето -
Облаци Few Clouds 3800ft
Налягане 1006
Промяна -
Сурови LZIB 291930Z 29010KT 9999 FEW038 01/M02 Q1006

VFR

2°C / -2°C

[Още]
Вятър 300º 12kt
Видимост >10km
Времето -
Облаци Few Clouds 3400ft
Налягане 1005
Промяна No Significant change
Сурови LZIB 291900Z 30012KT 9999 FEW034 02/M02 Q1005 NOSIG

VFR

2°C / -2°C

[Още]
Вятър 300º 11kt
Видимост >10km
Времето -
Облаци Clouds and Visibility OK
Налягане 1005
Промяна No Significant change
Сурови LZIB 291830Z 30011KT CAVOK 02/M02 Q1005 NOSIG

VFR

2°C / -2°C

[Още]
Вятър 310º 12kt
Видимост >10km
Времето -
Облаци Clouds and Visibility OK
Налягане 1005
Промяна No Significant change
Сурови LZIB 291800Z 31012KT CAVOK 02/M02 Q1005 NOSIG

VFR

2°C / -2°C

[Още]
Вятър 310º 12kt
Видимост >10km
Времето -
Облаци Clouds and Visibility OK
Налягане 1005
Промяна No Significant change
Сурови LZIB 291730Z 31012KT CAVOK 02/M02 Q1005 NOSIG

VFR

2°C / -2°C

[Още]
Вятър 310º 12kt
Видимост >10km
Времето -
Облаци Clouds and Visibility OK
Налягане 1004
Промяна No Significant change
Сурови LZIB 291700Z 31012KT CAVOK 02/M02 Q1004 NOSIG

VFR

2°C / -3°C

[Още]
Вятър 300º 12kt
Видимост >10km
Времето -
Облаци Clouds and Visibility OK
Налягане 1004
Промяна No Significant change
Сурови LZIB 291630Z 30012KT CAVOK 02/M03 Q1004 NOSIG

VFR

3°C / -3°C

[Още]
Вятър 310º 11kt
Видимост >10km
Времето -
Облаци Few Clouds 2400ft
Налягане 1004
Промяна No Significant change
Сурови LZIB 291600Z 31011KT 9999 FEW024 03/M03 Q1004 NOSIG

VFR

2°C / -3°C

[Още]
Вятър 310º 10kt
Видимост >10km
Времето -
Облаци Few Clouds 2400ft
Налягане 1003
Промяна No Significant change
Сурови LZIB 291530Z 31010KT 9999 FEW024 02/M03 Q1003 NOSIG

VFR

3°C / -2°C

[Още]
Вятър 310º 10kt
Видимост >10km
Времето -
Облаци Few Clouds 2400ft
Налягане 1003
Промяна No Significant change
Сурови LZIB 291500Z 31010KT 9999 FEW024 03/M02 Q1003 NOSIG

VFR

3°C / -2°C

[Още]
Вятър 310º 11kt
Видимост >10km
Времето -
Облаци Scattered Clouds 2400ft
Налягане 1003
Промяна No Significant change
Сурови LZIB 291430Z 31011KT 9999 SCT024 03/M02 Q1003 NOSIG

MVFR

3°C / -2°C

[Още]
Вятър 310º variable 280º to 340º 11kt Gust 22kt
Видимост >10km
Времето -
Облаци Broken Clouds 2500ft
Налягане 1002
Промяна No Significant change
Сурови LZIB 291400Z 31011G22KT 280V340 9999 BKN025 03/M02 Q1002 NOSIG

MVFR

3°C / -2°C

[Още]
Вятър 310º 11kt
Видимост >10km
Времето -
Облаци Broken Clouds 2500ft
Налягане 1002
Промяна No Significant change
Сурови LZIB 291330Z 31011KT 9999 BKN025 03/M02 Q1002 NOSIG

TAF за Ivanka pri Dunaji (LZIB)

From till


From till Wind 300º 12kt. Visibility 10km or more. Few Clouds 3400ft. Scattered Clouds 4500ft.
Temporarly from till Wind 270º 20kt. Gust 30kt.
Temporarly from till Light Rain . Broken Clouds 2000ft.
With 40% probability, Temporarly from till Visibility 4000m. Light Rain Light Snow . Broken Clouds 1200ft.

Сурови: TAF LZIB 292300Z 3000/0100 30012KT 9999 FEW034 SCT045 TEMPO 3008/3020 27020G30KT TEMPO 3013/0100 -RA BKN020 PROB40 TEMPO 3015/3019 4000 -RASN BKN012

Актуални сателитни и дъждовни снимки за Ivanka pri Dunaji, Словакия

Маркерът за локация е поставен върху Ivanka pri Dunaji. [Още]

Сателитното изображение в реално време съчетава видимата светлина през деня с инфрачервеното лъчение през нощта. През нощта изображението не е тъмно, тъй като инфрачервеното лъчение може да открива температурни разлики. За съжаление ниските облаци и мъглата са трудни за разграничаване от температурите на земята и затова могат да бъдат почти невидими през нощта. Сателитните изображения на Meteosat за Европа се актуализират в реално време на всеки 5 минути. Изображенията GOES-16/GOES-17 (Северна и Южна Америка) и Химавари (Азия) се актуализират на всеки 10 минути.

Валежите се изчисляват на база информация от радари и сателити. Нощните прогнози за валежи от сателити са с по-ниска прецизност от дневните прогнози. Оранжевите кръстове маркират локациите, на които са засечени светкавици (над Европа).

Всички права запазени 2021 EUMETSAT / meteoblue. Данни за светкавици, предоставени от nowcast.

Радар и валежи в момента за Ivanka pri Dunaji

Ситен дъжд
Лек
Умерен
Тежък
Много тежък
Аве

Маркерът за локация обозначава Ivanka pri Dunaji. Анимацията показва Радара за валежи за последния час, както и прогноза за 1h. Дъждът или лекият сняг може да са невидими за радара. Интензивността на валежите е обозначена с цветни кодове, вариращи от светлосиньо до оранжево.